sat.trackr.live / text

‹ back to catalog

STARLINK-35713

NORAD 66278 · 2025-247P

PAYLOAD ACTIVE UNKNOWN

§ Identity

Operator
Country
US
Launch date
2025-10-31
Launch site
AFWTR
Launch vehicle
Mass (kg)
RCS (m²)

Purposes: comms

External: N2YO · Heavens-Above · Gunter

§ Orbital elements

Epoch: 2026-05-25T02:53:21.016032Z

Period
93.85 min
Inclination
53.1583°
Eccentricity
0.0001569
Mean motion
15.34397218 rev/d
Perigee alt
461.6 km
Apogee alt
463.8 km
Semi-major
6,840.8 km
B*
5.1479e-4
RAAN
195.1453°
Arg perigee
86.2720°
Mean anomaly
273.8462°
Rev number
3,280

§ Raw data

STARLINK-357131 66278U 25247P   26145.12038213  .00017055  00000+0  51479-3 0  99932 66278  53.1583 195.1453 0001569  86.2720 273.8462 15.34397218 32808

JSON: /api/v1/satellites/66278 · /tle

For live sub-satellite position, see the globe view (requires WebGL).

§ Visibility from observer

Set your observer location to see the next 7 days of passes ≥ 10°. The values pass through the URL so the page stays shareable.

No JS? Fill the form by hand. The geolocation button needs JavaScript.